Wetterdaten: Samstag, 01.11.2014
Datum Zeit Temp. A. Feuchte A. Luftdruck Regen Wind Richtung Richtung Sonnenschein ET UV Solar Taupunkt Windchill Windben Empfang
01.11.2014 00:00 4,0 C 87 % 1026,8 hPa 0,0 l/m 0,0 km/h (0 Bft) S 180 0 min 0,000 mm 0,0 UV-I 0 W/m 2,0 C 4,0 C 0,0 km/h (0 Bft) 0,00 %
01.11.2014 00:15 4,1 C 87 % 1026,5 hPa 0,0 l/m 0,0 km/h (0 Bft) S 180 0 min 0,000 mm 0,0 UV-I 0 W/m 2,1 C 4,1 C 0,0 km/h (0 Bft) 0,00 %
01.11.2014 00:30 4,0 C 86 % 1026,5 hPa 0,0 l/m 0,0 km/h (0 Bft) S 179 0 min 0,000 mm 0,0 UV-I 0 W/m 1,9 C 4,0 C 0,0 km/h (0 Bft) 0,00 %
01.11.2014 00:45 3,9 C 86 % 1026,2 hPa 0,0 l/m 0,0 km/h (0 Bft) S 179 0 min 0,000 mm 0,0 UV-I 0 W/m 1,8 C 3,9 C 0,0 km/h (0 Bft) 0,00 %
01.11.2014 01:00 3,8 C 86 % 1026,5 hPa 0,0 l/m 0,0 km/h (0 Bft) S-SW 192 0 min 0,000 mm 0,0 UV-I 0 W/m 1,7 C 3,8 C 0,0 km/h (0 Bft) 0,00 %
01.11.2014 01:15 3,6 C 87 % 1026,6 hPa 0,3 l/m 0,0 km/h (0 Bft) S-SW 192 0 min 0,000 mm 0,0 UV-I 0 W/m 1,6 C 3,6 C 0,0 km/h (0 Bft) 0,00 %
01.11.2014 01:30 3,5 C 87 % 1026,6 hPa 0,0 l/m 0,0 km/h (0 Bft) S 178 0 min 0,000 mm 0,0 UV-I 0 W/m 1,5 C 3,5 C 0,0 km/h (0 Bft) 0,00 %
01.11.2014 01:45 3,4 C 86 % 1026,4 hPa 0,0 l/m 0,0 km/h (0 Bft) S 175 0 min 0,000 mm 0,0 UV-I 0 W/m 1,3 C 3,4 C 0,0 km/h (0 Bft) 0,00 %
01.11.2014 02:00 3,6 C 86 % 1026,7 hPa 0,0 l/m 0,0 km/h (0 Bft) S-SW 204 0 min 0,000 mm 0,0 UV-I 0 W/m 1,5 C 3,6 C 0,0 km/h (0 Bft) 0,00 %
01.11.2014 02:15 3,9 C 87 % 1026,7 hPa 0,0 l/m 0,0 km/h (0 Bft) S-SW 200 0 min 0,000 mm 0,0 UV-I 0 W/m 1,9 C 3,9 C 0,0 km/h (0 Bft) 0,00 %
01.11.2014 02:30 4,0 C 87 % 1026,2 hPa 0,0 l/m 0,0 km/h (0 Bft) S 180 0 min 0,000 mm 0,0 UV-I 0 W/m 2,0 C 4,0 C 0,0 km/h (0 Bft) 0,00 %
01.11.2014 02:45 4,1 C 87 % 1026,1 hPa 0,0 l/m 0,0 km/h (0 Bft) S 170 0 min 0,000 mm 0,0 UV-I 0 W/m 2,1 C 4,1 C 0,0 km/h (0 Bft) 0,00 %
01.11.2014 03:00 4,1 C 87 % 1026,1 hPa 0,0 l/m 0,0 km/h (0 Bft) S 176 0 min 0,000 mm 0,0 UV-I 0 W/m 2,1 C 4,1 C 0,0 km/h (0 Bft) 0,00 %
01.11.2014 03:15 4,2 C 87 % 1026,0 hPa 0,0 l/m 0,0 km/h (0 Bft) S 184 0 min 0,000 mm 0,0 UV-I 0 W/m 2,2 C 4,2 C 0,0 km/h (0 Bft) 0,00 %
01.11.2014 03:30 4,3 C 87 % 1026,0 hPa 0,0 l/m 0,0 km/h (0 Bft) S-SW 202 0 min 0,000 mm 0,0 UV-I 0 W/m 2,3 C 4,3 C 0,0 km/h (0 Bft) 0,00 %
01.11.2014 03:45 4,4 C 86 % 1025,8 hPa 0,0 l/m 0,0 km/h (0 Bft) S 175 0 min 0,000 mm 0,0 UV-I 0 W/m 2,3 C 4,4 C 0,0 km/h (0 Bft) 0,00 %
01.11.2014 04:00 4,4 C 86 % 1025,5 hPa 0,0 l/m 0,0 km/h (0 Bft) S 175 0 min 0,000 mm 0,0 UV-I 0 W/m 2,3 C 4,4 C 0,0 km/h (0 Bft) 0,00 %
01.11.2014 04:15 4,4 C 86 % 1025,5 hPa 0,0 l/m 0,0 km/h (0 Bft) S 175 0 min 0,000 mm 0,0 UV-I 0 W/m 2,3 C 4,4 C 0,0 km/h (0 Bft) 0,00 %
01.11.2014 04:30 4,5 C 86 % 1025,5 hPa 0,0 l/m 0,0 km/h (0 Bft) S 175 0 min 0,000 mm 0,0 UV-I 0 W/m 2,4 C 4,5 C 0,0 km/h (0 Bft) 0,00 %
01.11.2014 04:45 4,5 C 86 % 1025,4 hPa 0,0 l/m 0,0 km/h (0 Bft) W-SW 248 0 min 0,000 mm 0,0 UV-I 0 W/m 2,4 C 4,5 C 0,0 km/h (0 Bft) 0,00 %
01.11.2014 05:00 4,5 C 86 % 1025,5 hPa 0,0 l/m 0,0 km/h (0 Bft) S-SO 147 0 min 0,000 mm 0,0 UV-I 0 W/m 2,4 C 4,5 C 0,0 km/h (0 Bft) 0,00 %
01.11.2014 05:15 4,6 C 86 % 1025,3 hPa 0,0 l/m 0,0 km/h (0 Bft) S-SO 158 0 min 0,000 mm 0,0 UV-I 0 W/m 2,5 C 4,6 C 0,0 km/h (0 Bft) 0,00 %
01.11.2014 05:30 4,6 C 86 % 1025,3 hPa 0,0 l/m 0,0 km/h (0 Bft) S 174 0 min 0,000 mm 0,0 UV-I 0 W/m 2,5 C 4,6 C 0,0 km/h (0 Bft) 0,00 %
01.11.2014 05:45 4,6 C 86 % 1025,2 hPa 0,0 l/m 0,0 km/h (0 Bft) S 174 0 min 0,000 mm 0,0 UV-I 0 W/m 2,5 C 4,6 C 0,0 km/h (0 Bft) 0,00 %
01.11.2014 06:00 4,6 C 86 % 1025,1 hPa 0,0 l/m 0,0 km/h (0 Bft) S 174 0 min 0,000 mm 0,0 UV-I 0 W/m 2,5 C 4,6 C 0,0 km/h (0 Bft) 0,00 %
01.11.2014 06:15 4,7 C 86 % 1025,2 hPa 0,0 l/m 0,0 km/h (0 Bft) S 174 0 min 0,000 mm 0,0 UV-I 0 W/m 2,6 C 4,7 C 0,0 km/h (0 Bft) 0,00 %
01.11.2014 06:30 4,8 C 86 % 1025,5 hPa 0,0 l/m 0,0 km/h (0 Bft) S 173 0 min 0,000 mm 0,0 UV-I 0 W/m 2,7 C 4,8 C 0,0 km/h (0 Bft) 0,00 %
01.11.2014 06:45 4,8 C 86 % 1025,5 hPa 0,0 l/m 0,0 km/h (0 Bft) S 173 0 min 0,000 mm 0,0 UV-I 0 W/m 2,7 C 4,8 C 0,0 km/h (0 Bft) 0,00 %
01.11.2014 07:00 5,0 C 86 % 1025,4 hPa 0,0 l/m 0,0 km/h (0 Bft) S 174 0 min 0,000 mm 0,0 UV-I 0 W/m 2,9 C 5,0 C 0,0 km/h (0 Bft) 0,00 %
01.11.2014 07:15 5,1 C 86 % 1025,4 hPa 0,0 l/m 0,0 km/h (0 Bft) S 174 0 min 0,000 mm 0,0 UV-I 4 W/m 3,0 C 5,1 C 0,0 km/h (0 Bft) 0,00 %
01.11.2014 07:30 5,2 C 86 % 1025,4 hPa 0,0 l/m 0,0 km/h (0 Bft) S 175 0 min 0,000 mm 0,0 UV-I 9 W/m 3,1 C 5,2 C 0,0 km/h (0 Bft) 0,00 %
01.11.2014 07:45 5,3 C 86 % 1025,7 hPa 0,0 l/m 0,0 km/h (0 Bft) S 179 0 min 0,000 mm 1,0 UV-I 18 W/m 3,2 C 5,3 C 0,0 km/h (0 Bft) 0,00 %
01.11.2014 08:00 5,4 C 85 % 1025,3 hPa 0,0 l/m 0,0 km/h (0 Bft) SW 217 0 min 0,000 mm 1,0 UV-I 30 W/m 3,1 C 5,4 C 0,0 km/h (0 Bft) 0,00 %
01.11.2014 08:15 5,6 C 85 % 1025,4 hPa 0,0 l/m 0,0 km/h (0 Bft) SW 218 0 min 0,000 mm 1,0 UV-I 58 W/m 3,3 C 5,6 C 0,0 km/h (0 Bft) 0,00 %
01.11.2014 08:30 5,6 C 85 % 1025,3 hPa 0,0 l/m 0,0 km/h (0 Bft) S-SW 192 0 min 0,000 mm 1,0 UV-I 71 W/m 3,3 C 5,6 C 0,0 km/h (0 Bft) 0,00 %
01.11.2014 08:45 5,9 C 86 % 1025,2 hPa 0,0 l/m 0,0 km/h (0 Bft) S 173 0 min 0,000 mm 1,0 UV-I 64 W/m 3,7 C 5,9 C 0,0 km/h (0 Bft) 0,00 %
01.11.2014 09:00 6,1 C 86 % 1025,1 hPa 0,0 l/m 0,0 km/h (0 Bft) S 179 0 min 0,000 mm 1,0 UV-I 69 W/m 3,9 C 6,1 C 0,0 km/h (0 Bft) 0,00 %
01.11.2014 09:15 6,2 C 86 % 1025,1 hPa 0,0 l/m 0,0 km/h (0 Bft) W-SW 256 0 min 0,000 mm 1,0 UV-I 112 W/m 4,0 C 6,2 C 0,0 km/h (0 Bft) 0,00 %
01.11.2014 09:30 6,1 C 86 % 1025,1 hPa 0,0 l/m 0,0 km/h (0 Bft) SW 222 0 min 0,000 mm 2,0 UV-I 116 W/m 3,9 C 6,1 C 0,0 km/h (0 Bft) 0,00 %
01.11.2014 09:45 6,4 C 85 % 1025,1 hPa 0,0 l/m 0,0 km/h (0 Bft) NW 305 0 min 0,000 mm 2,0 UV-I 139 W/m 4,1 C 6,4 C 0,0 km/h (0 Bft) 0,00 %
01.11.2014 10:00 6,7 C 85 % 1025,0 hPa 0,0 l/m 2,2 km/h (1 Bft) O-SO 111 0 min 0,000 mm 2,0 UV-I 148 W/m 4,4 C 6,7 C 4,0 km/h (1 Bft) 0,00 %
01.11.2014 10:15 7,2 C 85 % 1025,0 hPa 0,0 l/m 0,0 km/h (0 Bft) S 175 0 min 0,000 mm 2,0 UV-I 167 W/m 4,9 C 7,2 C 0,0 km/h (0 Bft) 0,00 %
01.11.2014 10:30 7,9 C 85 % 1024,9 hPa 0,0 l/m 0,0 km/h (0 Bft) S 188 0 min 0,000 mm 2,0 UV-I 173 W/m 5,5 C 7,9 C 0,0 km/h (0 Bft) 0,00 %
01.11.2014 10:45 8,1 C 84 % 1024,6 hPa 0,0 l/m 0,0 km/h (0 Bft) O-NO 69 0 min 0,000 mm 2,0 UV-I 158 W/m 5,6 C 8,1 C 0,0 km/h (0 Bft) 0,00 %
01.11.2014 11:00 7,9 C 83 % 1024,4 hPa 0,0 l/m 0,0 km/h (0 Bft) S-SW 207 0 min 0,000 mm 2,0 UV-I 175 W/m 5,2 C 7,9 C 0,0 km/h (0 Bft) 0,00 %
01.11.2014 11:15 8,0 C 83 % 1024,3 hPa 0,0 l/m 0,0 km/h (0 Bft) NO 51 0 min 0,000 mm 2,0 UV-I 148 W/m 5,3 C 8,0 C 0,0 km/h (0 Bft) 0,00 %
01.11.2014 11:30 8,3 C 82 % 1024,1 hPa 0,0 l/m 0,0 km/h (0 Bft) SW 229 0 min 0,000 mm 2,0 UV-I 161 W/m 5,4 C 8,3 C 0,0 km/h (0 Bft) 0,00 %
01.11.2014 11:45 8,7 C 81 % 1023,8 hPa 0,0 l/m 0,0 km/h (0 Bft) SO 141 0 min 0,000 mm 2,0 UV-I 151 W/m 5,6 C 8,7 C 0,0 km/h (0 Bft) 0,00 %
01.11.2014 12:00 9,1 C 79 % 1023,7 hPa 0,0 l/m 0,0 km/h (0 Bft) W-SW 252 0 min 0,000 mm 2,0 UV-I 183 W/m 5,7 C 9,1 C 0,0 km/h (0 Bft) 0,00 %
01.11.2014 12:15 9,7 C 77 % 1023,0 hPa 0,0 l/m 0,0 km/h (0 Bft) SO 138 0 min 0,000 mm 2,0 UV-I 198 W/m 5,9 C 9,7 C 0,0 km/h (0 Bft) 0,00 %
01.11.2014 12:30 9,9 C 76 % 1023,2 hPa 0,0 l/m 0,0 km/h (0 Bft) W-NW 301 0 min 0,000 mm 2,0 UV-I 200 W/m 5,9 C 9,9 C 0,0 km/h (0 Bft) 0,00 %
01.11.2014 12:45 9,6 C 77 % 1022,7 hPa 0,0 l/m 0,0 km/h (0 Bft) O 90 0 min 0,000 mm 2,0 UV-I 155 W/m 5,8 C 9,6 C 0,0 km/h (0 Bft) 0,00 %
01.11.2014 13:00 9,7 C 78 % 1022,2 hPa 0,0 l/m 0,0 km/h (0 Bft) S-SW 205 0 min 0,000 mm 2,0 UV-I 141 W/m 6,1 C 9,7 C 0,0 km/h (0 Bft) 0,00 %
01.11.2014 13:15 10,0 C 78 % 1022,3 hPa 0,0 l/m 0,0 km/h (0 Bft) NO 53 0 min 0,000 mm 2,0 UV-I 108 W/m 6,3 C 10,0 C 0,0 km/h (0 Bft) 0,00 %
01.11.2014 13:30 9,9 C 78 % 1022,1 hPa 0,0 l/m 0,0 km/h (0 Bft) W 277 0 min 0,000 mm 2,0 UV-I 98 W/m 6,2 C 9,9 C 0,0 km/h (0 Bft) 0,00 %
01.11.2014 13:45 10,1 C 79 % 1022,1 hPa 0,0 l/m 0,0 km/h (0 Bft) O-SO 106 0 min 0,000 mm 1,0 UV-I 101 W/m 6,6 C 10,1 C 0,0 km/h (0 Bft) 0,00 %
01.11.2014 14:00 10,1 C 79 % 1022,1 hPa 0,0 l/m 0,0 km/h (0 Bft) NO 51 0 min 0,000 mm 1,0 UV-I 88 W/m 6,6 C 10,1 C 0,0 km/h (0 Bft) 0,00 %
01.11.2014 14:15 10,1 C 79 % 1022,1 hPa 0,0 l/m 0,0 km/h (0 Bft) O 99 0 min 0,000 mm 1,0 UV-I 82 W/m 6,6 C 10,1 C 0,0 km/h (0 Bft) 0,00 %
01.11.2014 14:30 10,2 C 80 % 1022,1 hPa 0,0 l/m 0,0 km/h (0 Bft) O-SO 103 0 min 0,000 mm 1,0 UV-I 92 W/m 6,9 C 10,2 C 0,0 km/h (0 Bft) 0,00 %
01.11.2014 14:45 10,6 C 78 % 1022,0 hPa 0,0 l/m 0,0 km/h (0 Bft) SO 138 0 min 0,000 mm 1,0 UV-I 90 W/m 6,9 C 10,6 C 0,0 km/h (0 Bft) 0,00 %
01.11.2014 15:00 11,0 C 75 % 1021,9 hPa 0,0 l/m 0,0 km/h (0 Bft) SO 142 0 min 0,000 mm 1,0 UV-I 92 W/m 6,7 C 11,0 C 0,0 km/h (0 Bft) 0,00 %
01.11.2014 15:15 11,3 C 74 % 1021,9 hPa 0,0 l/m 0,0 km/h (0 Bft) O-SO 123 0 min 0,000 mm 1,0 UV-I 95 W/m 6,8 C 11,3 C 0,0 km/h (0 Bft) 0,00 %
01.11.2014 15:30 11,3 C 75 % 1021,9 hPa 0,0 l/m 0,0 km/h (0 Bft) S-SW 198 0 min 0,000 mm 1,0 UV-I 93 W/m 7,0 C 11,3 C 0,0 km/h (0 Bft) 0,00 %
01.11.2014 15:45 11,2 C 75 % 1021,9 hPa 0,0 l/m 0,0 km/h (0 Bft) SO 127 0 min 0,000 mm 1,0 UV-I 76 W/m 6,9 C 11,2 C 0,0 km/h (0 Bft) 0,00 %
01.11.2014 16:00 10,8 C 75 % 1022,0 hPa 0,0 l/m 0,0 km/h (0 Bft) SO 127 15 min 0,000 mm 0,0 UV-I 73 W/m 6,5 C 10,8 C 0,0 km/h (0 Bft) 0,00 %
01.11.2014 16:15 10,5 C 78 % 1022,0 hPa 0,0 l/m 0,0 km/h (0 Bft) SO 127 15 min 0,000 mm 0,0 UV-I 89 W/m 6,8 C 10,5 C 0,0 km/h (0 Bft) 0,00 %
01.11.2014 16:30 10,1 C 78 % 1022,1 hPa 0,0 l/m 0,0 km/h (0 Bft) S 176 0 min 0,000 mm 0,0 UV-I 8 W/m 6,4 C 10,1 C 0,0 km/h (0 Bft) 0,00 %
01.11.2014 16:45 9,9 C 81 % 1022,1 hPa 0,0 l/m 0,0 km/h (0 Bft) S 176 0 min 0,000 mm 0,0 UV-I 0 W/m 6,8 C 9,9 C 0,0 km/h (0 Bft) 0,00 %
01.11.2014 17:00 9,5 C 81 % 1022,2 hPa 0,0 l/m 0,0 km/h (0 Bft) S 182 0 min 0,000 mm 0,0 UV-I 0 W/m 6,4 C 9,5 C 0,0 km/h (0 Bft) 0,00 %
01.11.2014 17:15 8,9 C 83 % 1022,3 hPa 0,0 l/m 0,0 km/h (0 Bft) S 182 0 min 0,000 mm 0,0 UV-I 0 W/m 6,2 C 8,9 C 0,0 km/h (0 Bft) 0,00 %
01.11.2014 17:30 8,1 C 84 % 1022,4 hPa 0,0 l/m 0,0 km/h (0 Bft) S 182 0 min 0,000 mm 0,0 UV-I 0 W/m 5,6 C 8,1 C 0,0 km/h (0 Bft) 0,00 %
01.11.2014 17:45 8,1 C 84 % 1022,4 hPa 0,0 l/m 0,0 km/h (0 Bft) O-SO 112 0 min 0,000 mm 0,0 UV-I 0 W/m 5,6 C 8,1 C 0,0 km/h (0 Bft) 0,00 %
01.11.2014 18:00 8,1 C 84 % 1022,4 hPa 0,0 l/m 0,0 km/h (0 Bft) S 190 0 min 0,000 mm 0,0 UV-I 0 W/m 5,6 C 8,1 C 0,0 km/h (0 Bft) 0,00 %
01.11.2014 18:15 7,9 C 84 % 1022,2 hPa 0,0 l/m 0,0 km/h (0 Bft) S 189 0 min 0,000 mm 0,0 UV-I 0 W/m 5,4 C 7,9 C 0,0 km/h (0 Bft) 0,00 %
01.11.2014 18:30 7,4 C 84 % 1022,2 hPa 0,0 l/m 0,0 km/h (0 Bft) S 189 0 min 0,000 mm 0,0 UV-I 0 W/m 4,9 C 7,4 C 0,0 km/h (0 Bft) 0,00 %
01.11.2014 18:45 6,9 C 84 % 1022,5 hPa 0,0 l/m 0,0 km/h (0 Bft) S 189 0 min 0,000 mm 0,0 UV-I 0 W/m 4,4 C 6,9 C 0,0 km/h (0 Bft) 0,00 %
01.11.2014 19:00 6,7 C 85 % 1022,7 hPa 0,0 l/m 0,0 km/h (0 Bft) S 189 0 min 0,000 mm 0,0 UV-I 0 W/m 4,4 C 6,7 C 0,0 km/h (0 Bft) 0,00 %
01.11.2014 19:15 6,7 C 85 % 1022,9 hPa 0,0 l/m 0,0 km/h (0 Bft) S 189 0 min 0,000 mm 0,0 UV-I 0 W/m 4,4 C 6,7 C 0,0 km/h (0 Bft) 0,00 %
01.11.2014 19:30 7,0 C 85 % 1023,1 hPa 0,0 l/m 0,0 km/h (0 Bft) S 189 0 min 0,000 mm 0,0 UV-I 0 W/m 4,7 C 7,0 C 0,0 km/h (0 Bft) 0,00 %
01.11.2014 19:45 6,8 C 85 % 1023,3 hPa 0,0 l/m 0,0 km/h (0 Bft) S 188 0 min 0,000 mm 0,0 UV-I 0 W/m 4,5 C 6,8 C 0,0 km/h (0 Bft) 0,00 %
01.11.2014 20:00 6,6 C 86 % 1022,4 hPa 0,0 l/m 0,0 km/h (0 Bft) S 188 0 min 0,000 mm 0,0 UV-I 0 W/m 4,4 C 6,6 C 0,0 km/h (0 Bft) 0,00 %
01.11.2014 20:15 6,5 C 85 % 1022,3 hPa 0,0 l/m 0,0 km/h (0 Bft) S 188 0 min 0,000 mm 0,0 UV-I 0 W/m 4,2 C 6,5 C 0,0 km/h (0 Bft) 0,00 %
01.11.2014 20:30 6,4 C 86 % 1022,1 hPa 0,0 l/m 0,0 km/h (0 Bft) S 188 0 min 0,000 mm 0,0 UV-I 0 W/m 4,2 C 6,4 C 0,0 km/h (0 Bft) 0,00 %
01.11.2014 20:45 6,2 C 86 % 1022,4 hPa 0,0 l/m 0,0 km/h (0 Bft) S 188 0 min 0,000 mm 0,0 UV-I 0 W/m 4,0 C 6,2 C 0,0 km/h (0 Bft) 0,00 %
01.11.2014 21:00 6,1 C 86 % 1021,9 hPa 0,0 l/m 0,0 km/h (0 Bft) S 188 0 min 0,000 mm 0,0 UV-I 0 W/m 3,9 C 6,1 C 0,0 km/h (0 Bft) 0,00 %
01.11.2014 21:15 6,1 C 86 % 1021,9 hPa 0,0 l/m 0,0 km/h (0 Bft) S 188 0 min 0,000 mm 0,0 UV-I 0 W/m 3,9 C 6,1 C 0,0 km/h (0 Bft) 0,00 %
01.11.2014 21:30 6,0 C 86 % 1022,1 hPa 0,0 l/m 0,0 km/h (0 Bft) S 188 0 min 0,000 mm 0,0 UV-I 0 W/m 3,8 C 6,0 C 0,0 km/h (0 Bft) 0,00 %
01.11.2014 21:45 5,9 C 86 % 1021,9 hPa 0,0 l/m 0,0 km/h (0 Bft) S 188 0 min 0,000 mm 0,0 UV-I 0 W/m 3,7 C 5,9 C 0,0 km/h (0 Bft) 0,00 %
01.11.2014 22:00 5,9 C 86 % 1021,9 hPa 0,0 l/m 0,0 km/h (0 Bft) S 187 0 min 0,000 mm 0,0 UV-I 0 W/m 3,7 C 5,9 C 0,0 km/h (0 Bft) 0,00 %
01.11.2014 22:15 5,8 C 86 % 1021,7 hPa 0,0 l/m 0,0 km/h (0 Bft) S 187 0 min 0,000 mm 0,0 UV-I 0 W/m 3,6 C 5,8 C 0,0 km/h (0 Bft) 0,00 %
01.11.2014 22:30 5,5 C 86 % 1021,8 hPa 0,0 l/m 0,0 km/h (0 Bft) S 187 0 min 0,000 mm 0,0 UV-I 0 W/m 3,3 C 5,5 C 0,0 km/h (0 Bft) 0,00 %
01.11.2014 22:45 5,2 C 86 % 1021,9 hPa 0,0 l/m 0,0 km/h (0 Bft) S 187 0 min 0,000 mm 0,0 UV-I 0 W/m 3,1 C 5,2 C 0,0 km/h (0 Bft) 0,00 %
01.11.2014 23:00 5,0 C 86 % 1022,0 hPa 0,0 l/m 0,0 km/h (0 Bft) S 187 0 min 0,000 mm 0,0 UV-I 0 W/m 2,9 C 5,0 C 0,0 km/h (0 Bft) 0,00 %
01.11.2014 23:15 4,9 C 86 % 1021,7 hPa 0,0 l/m 0,0 km/h (0 Bft) S 187 0 min 0,000 mm 0,0 UV-I 0 W/m 2,8 C 4,9 C 0,0 km/h (0 Bft) 0,00 %
01.11.2014 23:30 4,8 C 86 % 1021,8 hPa 0,0 l/m 0,0 km/h (0 Bft) S 180 0 min 0,000 mm 0,0 UV-I 0 W/m 2,7 C 4,8 C 0,0 km/h (0 Bft) 0,00 %
01.11.2014 23:45 4,7 C 86 % 1021,9 hPa 0,0 l/m 0,0 km/h (0 Bft) S 180 0 min 0,000 mm 0,0 UV-I 0 W/m 2,6 C 4,7 C 0,0 km/h (0 Bft) 0,00 %
_ Min-Zeit 01:45 15:15 22:15 - 00:00 - - - - - - 01:45 01:45 00:00 00:00
Minimum _ 3,4 C 74 % 1021,7 hPa - 0,0 km/h (0 Bft) - - - - - - 1,3 C 3,4 C 0,0 km/h (0 Bft) 0,00 %
_ Max-Zeit 15:15 00:00 00:00 01:15 10:00 - - 16:00 00:00 09:30 12:30 15:30 15:15 10:00 00:00
Maximum _ 11,3 C 87 % 1026,8 hPa 0,3 l/m 2,2 km/h
O-SO (1 Bft)
- - 15 min 0,000 mm 2,0 UV-I 200 W/m 7,0 C 11,3 C 4,0 km/h
O-SO (1 Bft)
0,00 %
Durchschnitt _ 6,7 C 84 % 1023,9 hPa #0,3 l/m 0,0 km/h (0 Bft) O-SO - #30 min. #0,000 mm 1,5 UV-I 106 W/m 4,1 C 6,7 C 0,0 km/h (0 Bft) 0,00 %